contact:dominique.lefevre@mio.osupytheas.fr, maurice.libes@osupytheas.fr, didier.mallarino@osupytheas.fr
Project:EMSO http://www.emso-fr.org/EMSO-France
Depth: 2436.0 m
Title:EMSO Ligure Ouest : Data MII capteur MICROCAT
DateTime_Computer,Latitude,Longitude,Temperature,Conductivity,Pressure,DateTime_Instrument
DateTime_Computer,Latitude,Longitude,degC,S m-1,dbar,DateTime_Instrument
2023-04-25T00:02:34Z,42.805,6.029,13.3015,4.60069,2470.787,2023-4-25T02:05:36Z
2023-04-25T00:05:37Z,42.805,6.029,13.3015,4.60068,2470.8,2023-4-25T02:08:39Z
2023-04-25T00:08:40Z,42.805,6.029,13.3019,4.60069,2470.777,2023-4-25T02:11:42Z
2023-04-25T00:11:43Z,42.805,6.029,13.3016,4.60069,2470.787,2023-4-25T02:14:45Z
2023-04-25T00:14:46Z,42.805,6.029,13.3012,4.60069,2470.8,2023-4-25T02:17:48Z
2023-04-25T00:17:49Z,42.805,6.029,13.3014,4.60068,2470.81,2023-4-25T02:20:52Z
2023-04-25T00:20:53Z,42.805,6.029,13.3012,4.60068,2470.777,2023-4-25T02:23:55Z
2023-04-25T00:23:56Z,42.805,6.029,13.3017,4.60068,2470.717,2023-4-25T02:26:58Z
2023-04-25T00:26:59Z,42.805,6.029,13.3018,4.60069,2470.763,2023-4-25T02:30:01Z
2023-04-25T00:30:02Z,42.805,6.029,13.3015,4.60069,2470.8,2023-4-25T02:33:04Z
2023-04-25T00:33:05Z,42.805,6.029,13.3019,4.60068,2470.74,2023-4-25T02:36:07Z
2023-04-25T00:36:08Z,42.805,6.029,13.3017,4.60069,2470.74,2023-4-25T02:39:10Z
2023-04-25T00:39:11Z,42.805,6.029,13.3018,4.60069,2470.763,2023-4-25T02:42:13Z
2023-04-25T00:42:14Z,42.805,6.029,13.3017,4.60069,2470.74,2023-4-25T02:45:16Z
2023-04-25T00:45:17Z,42.805,6.029,13.3016,4.60069,2470.763,2023-4-25T02:48:19Z
2023-04-25T00:48:20Z,42.805,6.029,13.3019,4.60069,2470.75,2023-4-25T02:51:22Z
2023-04-25T00:51:23Z,42.805,6.029,13.3018,4.60069,2470.763,2023-4-25T02:54:25Z
2023-04-25T00:54:26Z,42.805,6.029,13.3017,4.60069,2470.74,2023-4-25T02:57:29Z
2023-04-25T00:57:29Z,42.805,6.029,13.3018,4.60069,2470.777,2023-4-25T03:00:32Z
2023-04-25T01:00:33Z,42.805,6.029,13.3016,4.60069,2470.754,2023-4-25T03:03:35Z
2023-04-25T01:03:36Z,42.805,6.029,13.3015,4.60069,2470.8,2023-4-25T03:06:38Z
2023-04-25T01:06:39Z,42.805,6.029,13.3017,4.60070,2470.763,2023-4-25T03:09:41Z
2023-04-25T01:09:42Z,42.805,6.029,13.3015,4.60069,2470.763,2023-4-25T03:12:44Z
2023-04-25T01:12:45Z,42.805,6.029,13.3019,4.60069,2470.763,2023-4-25T03:15:47Z
2023-04-25T01:15:48Z,42.805,6.029,13.3014,4.60069,2470.74,2023-4-25T03:18:50Z
2023-04-25T01:18:51Z,42.805,6.029,13.3015,4.60069,2470.763,2023-4-25T03:21:53Z
2023-04-25T01:21:54Z,42.805,6.029,13.3017,4.60069,2470.763,2023-4-25T03:24:56Z
2023-04-25T01:24:57Z,42.805,6.029,13.3015,4.60069,2470.777,2023-4-25T03:27:59Z
2023-04-25T01:28:00Z,42.805,6.029,13.3021,4.60072,2470.75,2023-4-25T03:31:02Z
2023-04-25T01:31:03Z,42.805,6.029,13.3019,4.60071,2470.754,2023-4-25T03:34:05Z
2023-04-25T01:34:06Z,42.805,6.029,13.3017,4.60070,2470.73,2023-4-25T03:37:09Z
2023-04-25T01:37:10Z,42.805,6.029,13.3014,4.60069,2470.74,2023-4-25T03:40:12Z
2023-04-25T01:40:13Z,42.805,6.029,13.3015,4.60069,2470.74,2023-4-25T03:43:15Z
2023-04-25T01:43:16Z,42.805,6.029,13.3014,4.60071,2470.74,2023-4-25T03:46:18Z
2023-04-25T01:46:19Z,42.805,6.029,13.3018,4.60070,2470.754,2023-4-25T03:49:21Z
2023-04-25T01:49:22Z,42.805,6.029,13.3018,4.60070,2470.74,2023-4-25T03:52:24Z
2023-04-25T01:52:25Z,42.805,6.029,13.3018,4.60070,2470.754,2023-4-25T03:55:27Z
2023-04-25T01:55:28Z,42.805,6.029,13.3015,4.60070,2470.763,2023-4-25T03:58:30Z
2023-04-25T01:58:31Z,42.805,6.029,13.3015,4.60070,2470.717,2023-4-25T04:01:33Z
2023-04-25T02:01:34Z,42.805,6.029,13.3019,4.60069,2470.717,2023-4-25T04:04:36Z
2023-04-25T02:04:37Z,42.805,6.029,13.3014,4.60069,2470.73,2023-4-25T04:07:39Z
2023-04-25T02:07:40Z,42.805,6.029,13.3019,4.60070,2470.73,2023-4-25T04:10:42Z
2023-04-25T02:10:43Z,42.805,6.029,13.3014,4.60070,2470.74,2023-4-25T04:13:45Z
2023-04-25T02:13:46Z,42.805,6.029,13.3019,4.60073,2470.74,2023-4-25T04:16:49Z
2023-04-25T02:16:50Z,42.805,6.029,13.3021,4.60074,2470.717,2023-4-25T04:19:52Z
2023-04-25T02:19:53Z,42.805,6.029,13.3021,4.60074,2470.707,2023-4-25T04:22:55Z
2023-04-25T02:22:56Z,42.805,6.029,13.3020,4.60074,2470.693,2023-4-25T04:25:58Z
2023-04-25T02:25:59Z,42.805,6.029,13.3019,4.60074,2470.717,2023-4-25T04:29:01Z
2023-04-25T02:29:02Z,42.805,6.029,13.3019,4.60074,2470.717,2023-4-25T04:32:04Z
2023-04-25T02:32:05Z,42.805,6.029,13.3019,4.60072,2470.74,2023-4-25T04:35:07Z
2023-04-25T02:35:08Z,42.805,6.029,13.3019,4.60073,2470.717,2023-4-25T04:38:10Z
2023-04-25T02:38:11Z,42.805,6.029,13.3017,4.60072,2470.717,2023-4-25T04:41:13Z
2023-04-25T02:41:14Z,42.805,6.029,13.3018,4.60072,2470.73,2023-4-25T04:44:16Z
2023-04-25T02:44:17Z,42.805,6.029,13.3018,4.60072,2470.754,2023-4-25T04:47:19Z
2023-04-25T02:47:20Z,42.805,6.029,13.3024,4.60072,2470.693,2023-4-25T04:50:22Z
2023-04-25T02:50:23Z,42.805,6.029,13.3020,4.60072,2470.73,2023-4-25T04:53:26Z
2023-04-25T02:53:26Z,42.805,6.029,13.3022,4.60073,2470.717,2023-4-25T04:56:29Z
2023-04-25T02:56:30Z,42.805,6.029,13.3019,4.60073,2470.73,2023-4-25T04:59:32Z
2023-04-25T02:59:33Z,42.805,6.029,13.3021,4.60075,2470.693,2023-4-25T05:02:35Z
2023-04-25T03:02:36Z,42.805,6.029,13.3019,4.60075,2470.717,2023-4-25T05:05:38Z
2023-04-25T03:05:39Z,42.805,6.029,13.3021,4.60075,2470.73,2023-4-25T05:08:41Z
2023-04-25T03:08:42Z,42.805,6.029,13.3020,4.60074,2470.67,2023-4-25T05:11:44Z
2023-04-25T03:11:45Z,42.805,6.029,13.3017,4.60074,2470.67,2023-4-25T05:14:47Z
2023-04-25T03:14:48Z,42.805,6.029,13.3021,4.60074,2470.73,2023-4-25T05:17:50Z
2023-04-25T03:17:51Z,42.805,6.029,13.3022,4.60077,2470.717,2023-4-25T05:20:53Z
2023-04-25T03:20:54Z,42.805,6.029,13.3019,4.60077,2470.74,2023-4-25T05:23:56Z
2023-04-25T03:23:57Z,42.805,6.029,13.3023,4.60074,2470.717,2023-4-25T05:26:59Z
2023-04-25T03:27:00Z,42.805,6.029,13.3023,4.60076,2470.67,2023-4-25T05:30:02Z
2023-04-25T03:30:03Z,42.805,6.029,13.3020,4.60074,2470.684,2023-4-25T05:33:06Z
2023-04-25T03:33:06Z,42.805,6.029,13.3020,4.60074,2470.693,2023-4-25T05:36:09Z
2023-04-25T03:36:10Z,42.805,6.029,13.3018,4.60074,2470.684,2023-4-25T05:39:12Z
2023-04-25T03:39:13Z,42.805,6.029,13.3019,4.60072,2470.73,2023-4-25T05:42:15Z
2023-04-25T03:42:16Z,42.805,6.029,13.3021,4.60072,2470.693,2023-4-25T05:45:18Z
2023-04-25T03:45:19Z,42.805,6.029,13.3021,4.60074,2470.646,2023-4-25T05:48:21Z
2023-04-25T03:48:22Z,42.805,6.029,13.3023,4.60074,2470.67,2023-4-25T05:51:24Z
2023-04-25T03:51:25Z,42.805,6.029,13.3018,4.60073,2470.67,2023-4-25T05:54:27Z
2023-04-25T03:54:28Z,42.805,6.029,13.3020,4.60072,2470.693,2023-4-25T05:57:30Z
2023-04-25T03:57:31Z,42.805,6.029,13.3019,4.60074,2470.707,2023-4-25T06:00:33Z
2023-04-25T04:00:34Z,42.805,6.029,13.3020,4.60075,2470.693,2023-4-25T06:03:36Z
2023-04-25T04:03:37Z,42.805,6.029,13.3021,4.60076,2470.684,2023-4-25T06:06:39Z
2023-04-25T04:06:40Z,42.805,6.029,13.3024,4.60077,2470.693,2023-4-25T06:09:43Z
2023-04-25T04:09:43Z,42.805,6.029,13.3024,4.60079,2470.67,2023-4-25T06:12:46Z
2023-04-25T04:12:46Z,42.805,6.029,13.3024,4.60077,2470.684,2023-4-25T06:15:49Z
2023-04-25T04:15:50Z,42.805,6.029,13.3021,4.60077,2470.693,2023-4-25T06:18:52Z
2023-04-25T04:18:53Z,42.805,6.029,13.3026,4.60077,2470.646,2023-4-25T06:21:55Z
2023-04-25T04:21:56Z,42.805,6.029,13.3023,4.60076,2470.693,2023-4-25T06:24:58Z
2023-04-25T04:24:59Z,42.805,6.029,13.3024,4.60076,2470.684,2023-4-25T06:28:01Z
2023-04-25T04:28:02Z,42.805,6.029,13.3021,4.60075,2470.684,2023-4-25T06:31:04Z
2023-04-25T04:31:05Z,42.805,6.029,13.3020,4.60076,2470.67,2023-4-25T06:34:07Z
2023-04-25T04:34:08Z,42.805,6.029,13.3019,4.60074,2470.67,2023-4-25T06:37:10Z
2023-04-25T04:37:11Z,42.805,6.029,13.3022,4.60074,2470.646,2023-4-25T06:40:13Z
2023-04-25T04:40:14Z,42.805,6.029,13.3024,4.60075,2470.67,2023-4-25T06:43:16Z
2023-04-25T04:43:17Z,42.805,6.029,13.3021,4.60076,2470.684,2023-4-25T06:46:19Z
2023-04-25T04:46:20Z,42.805,6.029,13.3023,4.60077,2470.624,2023-4-25T06:49:23Z
2023-04-25T04:49:23Z,42.805,6.029,13.3024,4.60075,2470.684,2023-4-25T06:52:26Z
2023-04-25T04:52:27Z,42.805,6.029,13.3021,4.60078,2470.693,2023-4-25T06:55:29Z
2023-04-25T04:55:30Z,42.805,6.029,13.3025,4.60076,2470.646,2023-4-25T06:58:32Z
2023-04-25T04:58:33Z,42.805,6.029,13.3019,4.60075,2470.684,2023-4-25T07:01:35Z
2023-04-25T05:01:36Z,42.805,6.029,13.3019,4.60074,2470.67,2023-4-25T07:04:38Z
2023-04-25T05:04:39Z,42.805,6.029,13.3024,4.60075,2470.684,2023-4-25T07:07:41Z
2023-04-25T05:07:42Z,42.805,6.029,13.3024,4.60076,2470.684,2023-4-25T07:10:44Z
2023-04-25T05:10:45Z,42.805,6.029,13.3018,4.60074,2470.684,2023-4-25T07:13:47Z
2023-04-25T05:13:48Z,42.805,6.029,13.3022,4.60075,2470.646,2023-4-25T07:16:50Z
2023-04-25T05:16:51Z,42.805,6.029,13.3024,4.60074,2470.684,2023-4-25T07:19:53Z
2023-04-25T05:19:54Z,42.805,6.029,13.3020,4.60074,2470.67,2023-4-25T07:22:56Z
2023-04-25T05:22:57Z,42.805,6.029,13.3023,4.60075,2470.67,2023-4-25T07:26:00Z
2023-04-25T05:26:00Z,42.805,6.029,13.3021,4.60075,2470.646,2023-4-25T07:29:03Z
2023-04-25T05:29:03Z,42.805,6.029,13.3024,4.60074,2470.646,2023-4-25T07:32:06Z
2023-04-25T05:32:07Z,42.805,6.029,13.3023,4.60076,2470.646,2023-4-25T07:35:09Z
2023-04-25T05:35:10Z,42.805,6.029,13.3020,4.60074,2470.646,2023-4-25T07:38:12Z
2023-04-25T05:38:13Z,42.805,6.029,13.3020,4.60074,2470.693,2023-4-25T07:41:15Z
2023-04-25T05:41:16Z,42.805,6.029,13.3021,4.60075,2470.67,2023-4-25T07:44:18Z
2023-04-25T05:44:19Z,42.805,6.029,13.3024,4.60078,2470.67,2023-4-25T07:47:21Z
2023-04-25T05:47:22Z,42.805,6.029,13.3026,4.60078,2470.646,2023-4-25T07:50:24Z
2023-04-25T05:50:25Z,42.805,6.029,13.3024,4.60078,2470.67,2023-4-25T07:53:27Z
2023-04-25T05:53:28Z,42.805,6.029,13.3024,4.60078,2470.684,2023-4-25T07:56:30Z
2023-04-25T05:56:31Z,42.805,6.029,13.3024,4.60078,2470.646,2023-4-25T07:59:33Z
2023-04-25T05:59:34Z,42.805,6.029,13.3026,4.60077,2470.661,2023-4-25T08:02:36Z
2023-04-25T06:02:37Z,42.805,6.029,13.3026,4.60076,2470.661,2023-4-25T08:05:40Z
2023-04-25T06:05:40Z,42.805,6.029,13.3024,4.60075,2470.707,2023-4-25T08:08:43Z
2023-04-25T06:08:44Z,42.805,6.029,13.3022,4.60074,2470.67,2023-4-25T08:11:46Z
2023-04-25T06:11:47Z,42.805,6.029,13.3021,4.60074,2470.646,2023-4-25T08:14:49Z
2023-04-25T06:14:50Z,42.805,6.029,13.3021,4.60076,2470.661,2023-4-25T08:17:52Z
2023-04-25T06:17:53Z,42.805,6.029,13.3023,4.60075,2470.646,2023-4-25T08:20:55Z
2023-04-25T06:20:56Z,42.805,6.029,13.3024,4.60076,2470.67,2023-4-25T08:23:58Z
2023-04-25T06:23:59Z,42.805,6.029,13.3025,4.60077,2470.67,2023-4-25T08:27:01Z
2023-04-25T06:27:02Z,42.805,6.029,13.3022,4.60075,2470.646,2023-4-25T08:30:04Z
2023-04-25T06:30:08Z,42.805,6.029,13.3022,4.60074,2470.661,2023-4-25T08:33:07Z
2023-04-25T06:33:07Z,42.805,6.029,13.3021,4.60075,2470.646,2023-4-25T08:36:10Z
2023-04-25T06:36:10Z,42.805,6.029,13.3022,4.60074,2470.646,2023-4-25T08:39:13Z
2023-04-25T06:39:14Z,42.805,6.029,13.3020,4.60074,2470.67,2023-4-25T08:42:16Z
2023-04-25T06:42:17Z,42.805,6.029,13.3020,4.60074,2470.684,2023-4-25T08:45:19Z
2023-04-25T06:45:20Z,42.805,6.029,13.3021,4.60074,2470.67,2023-4-25T08:48:22Z
2023-04-25T06:48:23Z,42.805,6.029,13.3022,4.60074,2470.661,2023-4-25T08:51:25Z
2023-04-25T06:51:26Z,42.805,6.029,13.3024,4.60076,2470.67,2023-4-25T08:54:28Z
2023-04-25T06:54:29Z,42.805,6.029,13.3024,4.60078,2470.67,2023-4-25T08:57:31Z
2023-04-25T06:57:32Z,42.805,6.029,13.3025,4.60077,2470.661,2023-4-25T09:00:34Z
2023-04-25T07:00:35Z,42.805,6.029,13.3022,4.60077,2470.67,2023-4-25T09:03:37Z
2023-04-25T07:03:38Z,42.805,6.029,13.3022,4.60075,2470.693,2023-4-25T09:06:40Z
2023-04-25T07:06:41Z,42.805,6.029,13.3026,4.60076,2470.717,2023-4-25T09:09:43Z
2023-04-25T07:09:44Z,42.805,6.029,13.3021,4.60074,2470.67,2023-4-25T09:12:47Z
2023-04-25T07:12:47Z,42.805,6.029,13.3025,4.60077,2470.67,2023-4-25T09:15:50Z
2023-04-25T07:15:50Z,42.805,6.029,13.3022,4.60076,2470.693,2023-4-25T09:18:53Z
2023-04-25T07:18:54Z,42.805,6.029,13.3019,4.60074,2470.693,2023-4-25T09:21:56Z
2023-04-25T07:21:57Z,42.805,6.029,13.3017,4.60073,2470.684,2023-4-25T09:24:59Z
2023-04-25T07:25:00Z,42.805,6.029,13.3024,4.60073,2470.693,2023-4-25T09:28:02Z
2023-04-25T07:28:03Z,42.805,6.029,13.3021,4.60073,2470.73,2023-4-25T09:31:05Z
2023-04-25T07:31:06Z,42.805,6.029,13.3021,4.60072,2470.67,2023-4-25T09:34:08Z
2023-04-25T07:34:09Z,42.805,6.029,13.3023,4.60072,2470.67,2023-4-25T09:37:11Z
2023-04-25T07:37:12Z,42.805,6.029,13.3019,4.60074,2470.67,2023-4-25T09:40:14Z
2023-04-25T07:40:15Z,42.805,6.029,13.3021,4.60072,2470.646,2023-4-25T09:43:17Z
2023-04-25T07:43:18Z,42.805,6.029,13.3019,4.60073,2470.707,2023-4-25T09:46:20Z
2023-04-25T07:46:21Z,42.805,6.029,13.3019,4.60072,2470.693,2023-4-25T09:49:24Z
2023-04-25T07:49:24Z,42.805,6.029,13.3017,4.60073,2470.67,2023-4-25T09:52:27Z
2023-04-25T07:52:27Z,42.805,6.029,13.3021,4.60074,2470.67,2023-4-25T09:55:30Z
2023-04-25T07:55:30Z,42.805,6.029,13.3019,4.60072,2470.707,2023-4-25T09:58:33Z
2023-04-25T07:58:34Z,42.805,6.029,13.3021,4.60073,2470.693,2023-4-25T10:01:36Z
2023-04-25T08:01:37Z,42.805,6.029,13.3020,4.60073,2470.73,2023-4-25T10:04:39Z
2023-04-25T08:04:40Z,42.805,6.029,13.3019,4.60073,2470.67,2023-4-25T10:07:42Z
2023-04-25T08:07:43Z,42.805,6.029,13.3020,4.60074,2470.717,2023-4-25T10:10:45Z
2023-04-25T08:10:46Z,42.805,6.029,13.3024,4.60073,2470.67,2023-4-25T10:13:48Z
2023-04-25T08:13:49Z,42.805,6.029,13.3021,4.60074,2470.717,2023-4-25T10:16:51Z
2023-04-25T08:16:52Z,42.805,6.029,13.3021,4.60074,2470.693,2023-4-25T10:19:54Z
2023-04-25T08:19:55Z,42.805,6.029,13.3019,4.60074,2470.693,2023-4-25T10:22:57Z
2023-04-25T08:22:58Z,42.805,6.029,13.3021,4.60074,2470.693,2023-4-25T10:26:01Z
2023-04-25T08:26:01Z,42.805,6.029,13.3023,4.60074,2470.707,2023-4-25T10:29:04Z
2023-04-25T08:29:04Z,42.805,6.029,13.3025,4.60074,2470.693,2023-4-25T10:32:07Z
2023-04-25T08:32:06Z,42.805,6.029,13.3019,4.60073,2470.693,2023-4-25T10:35:08Z
2023-04-25T08:35:09Z,42.805,6.029,13.3023,4.60074,2470.679,2023-4-25T10:38:11Z
2023-04-25T08:38:12Z,42.805,6.029,13.3023,4.60074,2470.73,2023-4-25T10:41:14Z
2023-04-25T08:41:15Z,42.805,6.029,13.3017,4.60073,2470.693,2023-4-25T10:44:18Z
2023-04-25T08:44:18Z,42.805,6.029,13.3021,4.60074,2470.717,2023-4-25T10:47:21Z
2023-04-25T08:47:21Z,42.805,6.029,13.3021,4.60073,2470.717,2023-4-25T10:50:24Z
2023-04-25T08:50:25Z,42.805,6.029,13.3022,4.60074,2470.707,2023-4-25T10:53:27Z
2023-04-25T08:53:28Z,42.805,6.029,13.3021,4.60074,2470.73,2023-4-25T10:56:30Z
2023-04-25T08:56:31Z,42.805,6.029,13.3022,4.60075,2470.73,2023-4-25T10:59:33Z
2023-04-25T08:59:34Z,42.805,6.029,13.3020,4.60074,2470.717,2023-4-25T11:02:36Z
2023-04-25T09:02:37Z,42.805,6.029,13.3021,4.60074,2470.717,2023-4-25T11:05:39Z
2023-04-25T09:05:40Z,42.805,6.029,13.3020,4.60074,2470.707,2023-4-25T11:08:42Z
2023-04-25T09:08:43Z,42.805,6.029,13.3021,4.60074,2470.707,2023-4-25T11:11:45Z
2023-04-25T09:11:46Z,42.805,6.029,13.3022,4.60074,2470.693,2023-4-25T11:14:48Z
2023-04-25T09:14:49Z,42.805,6.029,13.3016,4.60074,2470.717,2023-4-25T11:17:51Z
2023-04-25T09:17:52Z,42.805,6.029,13.3023,4.60074,2470.717,2023-4-25T11:20:55Z
2023-04-25T09:20:55Z,42.805,6.029,13.3021,4.60074,2470.73,2023-4-25T11:23:58Z
2023-04-25T09:23:58Z,42.805,6.029,13.3021,4.60074,2470.693,2023-4-25T11:27:01Z
2023-04-25T09:27:02Z,42.805,6.029,13.3022,4.60073,2470.693,2023-4-25T11:30:04Z
2023-04-25T09:30:05Z,42.805,6.029,13.3020,4.60073,2470.693,2023-4-25T11:33:07Z
2023-04-25T09:33:08Z,42.805,6.029,13.3020,4.60074,2470.693,2023-4-25T11:36:10Z
2023-04-25T09:36:11Z,42.805,6.029,13.3022,4.60074,2470.73,2023-4-25T11:39:13Z
2023-04-25T09:39:14Z,42.805,6.029,13.3015,4.60073,2470.684,2023-4-25T11:42:16Z
2023-04-25T09:42:17Z,42.805,6.029,13.3020,4.60073,2470.707,2023-4-25T11:45:19Z
2023-04-25T09:45:20Z,42.805,6.029,13.3020,4.60074,2470.67,2023-4-25T11:48:22Z
2023-04-25T09:48:23Z,42.805,6.029,13.3015,4.60073,2470.693,2023-4-25T11:51:25Z
2023-04-25T09:51:26Z,42.805,6.029,13.3018,4.60074,2470.73,2023-4-25T11:54:29Z
2023-04-25T09:54:29Z,42.805,6.029,13.3019,4.60073,2470.693,2023-4-25T11:57:32Z
2023-04-25T09:57:32Z,42.805,6.029,13.3019,4.60073,2470.67,2023-4-25T12:00:35Z
2023-04-25T10:00:35Z,42.805,6.029,13.3019,4.60073,2470.707,2023-4-25T12:03:38Z
2023-04-25T10:03:39Z,42.805,6.029,13.3021,4.60074,2470.693,2023-4-25T12:06:41Z
2023-04-25T10:06:42Z,42.805,6.029,13.3020,4.60072,2470.717,2023-4-25T12:09:44Z
2023-04-25T10:09:45Z,42.805,6.029,13.3021,4.60072,2470.67,2023-4-25T12:12:47Z
2023-04-25T10:12:48Z,42.805,6.029,13.3018,4.60073,2470.693,2023-4-25T12:15:50Z
2023-04-25T10:15:51Z,42.805,6.029,13.3022,4.60074,2470.717,2023-4-25T12:18:53Z
2023-04-25T10:18:54Z,42.805,6.029,13.3021,4.60072,2470.717,2023-4-25T12:21:56Z
2023-04-25T10:21:57Z,42.805,6.029,13.3015,4.60073,2470.693,2023-4-25T12:24:59Z
2023-04-25T10:25:00Z,42.805,6.029,13.3020,4.60073,2470.693,2023-4-25T12:28:02Z
2023-04-25T10:28:03Z,42.805,6.029,13.3017,4.60072,2470.67,2023-4-25T12:31:05Z
2023-04-25T10:31:06Z,42.805,6.029,13.3017,4.60072,2470.717,2023-4-25T12:34:09Z
2023-04-25T10:34:09Z,42.805,6.029,13.3018,4.60073,2470.693,2023-4-25T12:37:12Z
2023-04-25T10:37:12Z,42.805,6.029,13.3019,4.60073,2470.693,2023-4-25T12:40:15Z
2023-04-25T10:40:16Z,42.805,6.029,13.3020,4.60072,2470.707,2023-4-25T12:43:18Z
2023-04-25T10:43:19Z,42.805,6.029,13.3022,4.60073,2470.707,2023-4-25T12:46:21Z
2023-04-25T10:46:22Z,42.805,6.029,13.3020,4.60072,2470.684,2023-4-25T12:49:24Z
2023-04-25T10:49:25Z,42.805,6.029,13.3019,4.60073,2470.73,2023-4-25T12:52:27Z
2023-04-25T10:52:28Z,42.805,6.029,13.3021,4.60072,2470.693,2023-4-25T12:55:30Z
2023-04-25T10:55:31Z,42.805,6.029,13.3021,4.60072,2470.693,2023-4-25T12:58:33Z
2023-04-25T10:58:34Z,42.805,6.029,13.3019,4.60073,2470.693,2023-4-25T13:01:36Z
2023-04-25T11:01:37Z,42.805,6.029,13.3023,4.60072,2470.693,2023-4-25T13:04:39Z
2023-04-25T11:04:40Z,42.805,6.029,13.3021,4.60073,2470.67,2023-4-25T13:07:43Z
2023-04-25T11:07:43Z,42.805,6.029,13.3020,4.60073,2470.707,2023-4-25T13:10:46Z
2023-04-25T11:10:46Z,42.805,6.029,13.3019,4.60072,2470.646,2023-4-25T13:13:49Z
2023-04-25T11:13:49Z,42.805,6.029,13.3018,4.60072,2470.693,2023-4-25T13:16:52Z
2023-04-25T11:16:53Z,42.805,6.029,13.3019,4.60072,2470.707,2023-4-25T13:19:55Z
2023-04-25T11:19:56Z,42.805,6.029,13.3020,4.60072,2470.646,2023-4-25T13:22:58Z
2023-04-25T11:22:59Z,42.805,6.029,13.3022,4.60072,2470.717,2023-4-25T13:26:01Z
2023-04-25T11:26:02Z,42.805,6.029,13.3022,4.60072,2470.67,2023-4-25T13:29:04Z
2023-04-25T11:29:05Z,42.805,6.029,13.3021,4.60072,2470.717,2023-4-25T13:32:07Z
2023-04-25T11:32:08Z,42.805,6.029,13.3019,4.60072,2470.67,2023-4-25T13:35:10Z
2023-04-25T11:35:11Z,42.805,6.029,13.3023,4.60072,2470.646,2023-4-25T13:38:13Z
2023-04-25T11:38:14Z,42.805,6.029,13.3019,4.60072,2470.67,2023-4-25T13:41:16Z
2023-04-25T11:41:17Z,42.805,6.029,13.3018,4.60072,2470.67,2023-4-25T13:44:20Z
2023-04-25T11:44:20Z,42.805,6.029,13.3022,4.60072,2470.646,2023-4-25T13:47:23Z
2023-04-25T11:47:23Z,42.805,6.029,13.3018,4.60073,2470.67,2023-4-25T13:50:26Z
2023-04-25T11:50:26Z,42.805,6.029,13.3015,4.60072,2470.67,2023-4-25T13:53:29Z
2023-04-25T11:53:30Z,42.805,6.029,13.3017,4.60071,2470.684,2023-4-25T13:56:32Z
2023-04-25T11:56:33Z,42.805,6.029,13.3017,4.60071,2470.67,2023-4-25T13:59:35Z
2023-04-25T11:59:36Z,42.805,6.029,13.3018,4.60071,2470.67,2023-4-25T14:02:38Z
2023-04-25T12:02:39Z,42.805,6.029,13.3018,4.60071,2470.67,2023-4-25T14:05:41Z
2023-04-25T12:05:42Z,42.805,6.029,13.3019,4.60072,2470.684,2023-4-25T14:08:44Z
2023-04-25T12:08:45Z,42.805,6.029,13.3019,4.60071,2470.646,2023-4-25T14:11:47Z
2023-04-25T12:11:48Z,42.805,6.029,13.3021,4.60070,2470.646,2023-4-25T14:14:50Z
2023-04-25T12:14:51Z,42.805,6.029,13.3019,4.60070,2470.637,2023-4-25T14:17:54Z
2023-04-25T12:17:54Z,42.805,6.029,13.3024,4.60072,2470.646,2023-4-25T14:20:57Z
2023-04-25T12:20:57Z,42.805,6.029,13.3018,4.60072,2470.693,2023-4-25T14:24:00Z
2023-04-25T12:24:00Z,42.805,6.029,13.3019,4.60071,2470.67,2023-4-25T14:27:03Z
2023-04-25T12:27:03Z,42.805,6.029,13.3020,4.60070,2470.646,2023-4-25T14:30:06Z
2023-04-25T12:30:07Z,42.805,6.029,13.3020,4.60070,2470.646,2023-4-25T14:33:09Z
2023-04-25T12:33:10Z,42.805,6.029,13.3022,4.60070,2470.624,2023-4-25T14:36:12Z
2023-04-25T12:36:13Z,42.805,6.029,13.3023,4.60070,2470.684,2023-4-25T14:39:15Z
2023-04-25T12:39:16Z,42.805,6.029,13.3022,4.60072,2470.661,2023-4-25T14:42:18Z
2023-04-25T12:42:19Z,42.805,6.029,13.3024,4.60072,2470.637,2023-4-25T14:45:21Z
2023-04-25T12:45:22Z,42.805,6.029,13.3019,4.60070,2470.624,2023-4-25T14:48:24Z
2023-04-25T12:48:25Z,42.805,6.029,13.3019,4.60070,2470.637,2023-4-25T14:51:27Z
2023-04-25T12:51:28Z,42.805,6.029,13.3019,4.60071,2470.661,2023-4-25T14:54:31Z
2023-04-25T12:54:31Z,42.805,6.029,13.3021,4.60070,2470.646,2023-4-25T14:57:34Z
2023-04-25T12:57:34Z,42.805,6.029,13.3016,4.60070,2470.624,2023-4-25T15:00:37Z
2023-04-25T13:00:37Z,42.805,6.029,13.3019,4.60072,2470.661,2023-4-25T15:03:40Z
2023-04-25T13:03:40Z,42.805,6.029,13.3019,4.60070,2470.624,2023-4-25T15:06:43Z
2023-04-25T13:06:44Z,42.805,6.029,13.3020,4.60069,2470.637,2023-4-25T15:09:46Z
2023-04-25T13:09:47Z,42.805,6.029,13.3019,4.60071,2470.684,2023-4-25T15:12:49Z
2023-04-25T13:12:50Z,42.805,6.029,13.3017,4.60072,2470.61,2023-4-25T15:15:52Z
2023-04-25T13:15:53Z,42.805,6.029,13.3016,4.60070,2470.67,2023-4-25T15:18:55Z
2023-04-25T13:18:56Z,42.805,6.029,13.3018,4.60069,2470.646,2023-4-25T15:21:58Z
2023-04-25T13:21:59Z,42.805,6.029,13.3020,4.60071,2470.6,2023-4-25T15:25:01Z
2023-04-25T13:25:02Z,42.805,6.029,13.3024,4.60070,2470.624,2023-4-25T15:28:04Z
2023-04-25T13:28:05Z,42.805,6.029,13.3019,4.60070,2470.624,2023-4-25T15:31:08Z
2023-04-25T13:31:08Z,42.805,6.029,13.3021,4.60072,2470.6,2023-4-25T15:34:11Z
2023-04-25T13:34:11Z,42.805,6.029,13.3019,4.60071,2470.6,2023-4-25T15:37:14Z
2023-04-25T13:37:14Z,42.805,6.029,13.3021,4.60070,2470.624,2023-4-25T15:40:17Z
2023-04-25T13:40:17Z,42.805,6.029,13.3018,4.60070,2470.624,2023-4-25T15:43:20Z
2023-04-25T13:43:21Z,42.805,6.029,13.3020,4.60070,2470.624,2023-4-25T15:46:23Z
2023-04-25T13:46:24Z,42.805,6.029,13.3022,4.60070,2470.624,2023-4-25T15:49:26Z
2023-04-25T13:49:27Z,42.805,6.029,13.3018,4.60069,2470.6,2023-4-25T15:52:29Z
2023-04-25T13:52:30Z,42.805,6.029,13.3019,4.60069,2470.637,2023-4-25T15:55:32Z
2023-04-25T13:55:33Z,42.805,6.029,13.3016,4.60069,2470.624,2023-4-25T15:58:35Z
2023-04-25T13:58:36Z,42.805,6.029,13.3019,4.60069,2470.6,2023-4-25T16:01:38Z
2023-04-25T14:01:39Z,42.805,6.029,13.3023,4.60070,2470.624,2023-4-25T16:04:41Z
2023-04-25T14:04:42Z,42.805,6.029,13.3021,4.60069,2470.6,2023-4-25T16:07:45Z
2023-04-25T14:07:45Z,42.805,6.029,13.3019,4.60070,2470.614,2023-4-25T16:10:48Z
2023-04-25T14:10:48Z,42.805,6.029,13.3015,4.60070,2470.646,2023-4-25T16:13:51Z
2023-04-25T14:13:51Z,42.805,6.029,13.3021,4.60070,2470.6,2023-4-25T16:16:54Z
2023-04-25T14:16:55Z,42.805,6.029,13.3020,4.60070,2470.577,2023-4-25T16:19:57Z
2023-04-25T14:19:58Z,42.805,6.029,13.3023,4.60072,2470.614,2023-4-25T16:23:00Z
2023-04-25T14:23:01Z,42.805,6.029,13.3020,4.60070,2470.637,2023-4-25T16:26:03Z
2023-04-25T14:26:04Z,42.805,6.029,13.3014,4.60069,2470.624,2023-4-25T16:29:06Z
2023-04-25T14:29:07Z,42.805,6.029,13.3019,4.60070,2470.6,2023-4-25T16:32:09Z
2023-04-25T14:32:10Z,42.805,6.029,13.3020,4.60070,2470.6,2023-4-25T16:35:12Z
2023-04-25T14:35:13Z,42.805,6.029,13.3019,4.60070,2470.577,2023-4-25T16:38:15Z
2023-04-25T14:38:16Z,42.805,6.029,13.3018,4.60070,2470.577,2023-4-25T16:41:18Z
2023-04-25T14:41:19Z,42.805,6.029,13.3021,4.60071,2470.614,2023-4-25T16:44:22Z
2023-04-25T14:44:22Z,42.805,6.029,13.3017,4.60070,2470.6,2023-4-25T16:47:25Z
2023-04-25T14:47:25Z,42.805,6.029,13.3020,4.60072,2470.577,2023-4-25T16:50:28Z
2023-04-25T14:50:28Z,42.805,6.029,13.3021,4.60070,2470.6,2023-4-25T16:53:31Z
2023-04-25T14:53:32Z,42.805,6.029,13.3019,4.60071,2470.577,2023-4-25T16:56:34Z
2023-04-25T14:56:35Z,42.805,6.029,13.3021,4.60072,2470.577,2023-4-25T16:59:37Z
2023-04-25T14:59:38Z,42.805,6.029,13.3019,4.60072,2470.591,2023-4-25T17:02:40Z
2023-04-25T15:02:41Z,42.805,6.029,13.3023,4.60073,2470.553,2023-4-25T17:05:43Z
2023-04-25T15:05:44Z,42.805,6.029,13.3021,4.60073,2470.6,2023-4-25T17:08:46Z
2023-04-25T15:08:47Z,42.805,6.029,13.3023,4.60072,2470.614,2023-4-25T17:11:49Z
2023-04-25T15:11:50Z,42.805,6.029,13.3022,4.60072,2470.6,2023-4-25T17:14:52Z
2023-04-25T15:14:53Z,42.805,6.029,13.3021,4.60074,2470.6,2023-4-25T17:17:56Z